This is the latest recevied weather packets stored in our database for station/object OK2JF-6. If no packets are shown the sender has not sent any weather packets the latest 10 day(s).
| Time | Temp. | Humidity | Pressure | Rain* | Wind** | Luminosity | Snow |
|---|---|---|---|---|---|---|---|
| 1777823838 | 20.56° C | 39% | 1087.4 hPa | 0 mm | - | 110 W/m² | - |
| 1777823718 | 20.56° C | 39% | 1087.2 hPa | 0 mm | - | 108 W/m² | - |
| 1777823523 | 20.56° C | 38% | 1087.5 hPa | 0 mm | - | 110 W/m² | - |
| 1777823357 | 20.56° C | 38% | 1087.3 hPa | 0 mm | - | 117 W/m² | - |
| 1777823343 | 20.56° C | 38% | 1087.3 hPa | 0 mm | - | 117 W/m² | - |
| 1777823043 | 20.56° C | 38% | 1087.4 hPa | 0 mm | - | 99 W/m² | - |
| 1777822263 | 21.11° C | 37% | 1087.6 hPa | 0 mm | - | 138 W/m² | - |
| 1777822203 | 21.11° C | 37% | 1087.6 hPa | 0 mm | - | 141 W/m² | - |
| 1777821603 | 21.11° C | 37% | 1087.7 hPa | 0 mm | - | 142 W/m² | - |
| 1777821003 | 21.11° C | 36% | 1087.5 hPa | 0 mm | - | 175 W/m² | - |
| 1777820703 | 21.67° C | 36% | 1087.9 hPa | 0 mm | - | 180 W/m² | - |
| 1777820523 | 21.67° C | 36% | 1087.7 hPa | 0 mm | - | 174 W/m² | - |
| 1777820463 | 21.67° C | 37% | 1087.6 hPa | 0 mm | - | 191 W/m² | - |
| 1777820297 | 21.67° C | 37% | 1087.9 hPa | 0 mm | - | 195 W/m² | - |
| 1777820223 | 21.67° C | 37% | 1087.8 hPa | 0 mm | - | 198 W/m² | - |
| 1777819983 | 21.67° C | 36% | 1087.8 hPa | 0 mm | - | 205 W/m² | - |
| 1777818559 | 22.22° C | 36% | 1088 hPa | 0 mm | - | 154 W/m² | - |
| 1777818018 | 21.67° C | 37% | 1088.1 hPa | 0 mm | - | 260 W/m² | - |
| 1777817043 | 22.22° C | 36% | 1088 hPa | 0 mm | - | 290 W/m² | - |
| 1777816503 | 22.22° C | 36% | 1088 hPa | 0 mm | - | 307 W/m² | - |
| 1777816023 | 22.22° C | 35% | 1088.3 hPa | 0 mm | - | 318 W/m² | - |
| 1777815917 | 22.22° C | 36% | 1088.2 hPa | 0 mm | - | 322 W/m² | - |
| 1777815483 | 22.22° C | 35% | 1088.3 hPa | 0 mm | - | 338 W/m² | - |
| 1777815198 | 22.22° C | 36% | 1088.4 hPa | 0 mm | - | 346 W/m² | - |
| 1777814883 | 21.67° C | 36% | 1088.1 hPa | 0 mm | - | 354 W/m² | - |
* Rain latest hour (hover to see other rain measurements)
** Current wind speed in m/s (hover to see current wind gust speed)